Weather History for 60210 - August, 2014

Change the Weather History Date:

Friday, August 29, 2014

  Actual Average Record
Temperature  
Mean Temperature 89 °F -  
Max Temperature 101 °F - - ()
Min Temperature 77 °F - - ()
Cooling Degree Days 24    
Growing Degree Days 39 (Base 50)    
Moisture  
Dew Point 41 °F    
Average Humidity 15    
Maximum Humidity 28    
Minimum Humidity 6    
Precipitation  
Precipitation 0.00 in - - ()
Sea Level Pressure  
Sea Level Pressure 30.16 in    
Wind  
Wind Speed 7 mph ()    
Max Wind Speed 26 mph    
Max Gust Speed -    
Visibility 8.7 miles    
Events      
T = Trace of Precipitation, MM = Missing Value Source: Averaged Metar Reports

Daily Weather History Graph

Daily Weather History Graph

Search for Another Location

Airport or City:

Trip Planner

Search our weather history database for the weather conditions in past years. The results will help you decide how hot, cold, wet, or windy it might be!

Date:

Astronomy

Aug. 29, 2014 Rise Set
Actual Time 6:51 AM WEST 7:45 PM WEST
Civil Twilight 6:25 AM WEST 8:10 PM WEST
Nautical Twilight 5:56 AM WEST 8:40 PM WEST
Astronomical Twilight 5:25 AM WEST 9:10 PM WEST
Moon 10:11 AM WEST (8/29) 9:51 PM WEST (8/29)
Length of Visible Light 13h 44m
Length of Day
12h 54m
Waxing Crescent, 13% of the Moon is Illuminated
Aug 29
Waxing Crescent
Sep 2
First Quarter
Sep 9
Full
Sep 16
Last Quarter
Sep 24
New

Hourly Weather History & Observations

Time (WEST) Temp. Dew Point Humidity Pressure Visibility Wind Dir Wind Speed Gust Speed Precip Events Conditions
12:00 AM 87.8 °F 39.2 °F 18% 30.21 in 6.2 mi NNE 4.6 mph - N/A   Partly Cloudy
1:00 AM 88 °F 39 °F 10%  in 19 mi East 6.9 mph - -   Mostly Cloudy
1:00 AM 89.6 °F 39.2 °F 17% 30.21 in 6.2 mi East 6.9 mph - N/A   Partly Cloudy
2:00 AM 87.8 °F 41.0 °F 19% 30.18 in 6.2 mi East 3.5 mph - N/A   Partly Cloudy
3:00 AM 87.8 °F 41.0 °F 19% 30.18 in 6.2 mi West 3.5 mph - N/A   Partly Cloudy
4:00 AM 89 °F 41 °F 10%  in 17 mi East 5.8 mph - -   Mostly Cloudy
4:00 AM 87.8 °F 41.0 °F 19% 30.18 in 6.2 mi SE 4.6 mph - N/A   Partly Cloudy
6:00 AM 82.4 °F 41.0 °F 23% 30.18 in 6.2 mi North 6.9 mph - N/A   Partly Cloudy
7:00 AM 79 °F 42 °F 17%  in 17 mi South 3.5 mph - -   Partly Cloudy
7:00 AM 78.8 °F 42.8 °F 28% 30.21 in 6.2 mi SSE 3.5 mph - N/A   Scattered Clouds
8:00 AM 80.6 °F 42.8 °F 26% 30.21 in 6.2 mi West 2.3 mph - N/A   Scattered Clouds
9:00 AM 86.0 °F 44.6 °F 23% 30.21 in 6.2 mi West 6.9 mph - N/A   Scattered Clouds
10:00 AM 94 °F 42 °F 9%  in 15 mi SW 2.3 mph - -   Partly Cloudy
10:00 AM 93.2 °F 44.6 °F 19% 30.21 in 6.2 mi SSW 2.3 mph - N/A   Scattered Clouds
11:00 AM 95.0 °F 41.0 °F 15% 30.21 in 6.2 mi NE 5.8 mph - N/A   Mostly Cloudy
12:00 PM 95.0 °F 39.2 °F 14% 30.21 in 6.2 mi SE 11.5 mph - N/A   Partly Cloudy
1:00 PM 98 °F 39 °F 6%  in 16 mi WSW 3.5 mph - -   Mostly Cloudy
1:00 PM 96.8 °F 39.2 °F 14% 30.18 in 6.2 mi South 8.1 mph - N/A   Partly Cloudy
2:00 PM 100.4 °F 41.0 °F 13% 30.18 in 6.2 mi NNE 5.8 mph - N/A   Partly Cloudy
3:00 PM 98.6 °F 39.2 °F 13% 30.15 in 6.2 mi WSW 4.6 mph - N/A   Partly Cloudy
4:00 PM 98 °F 39 °F 7%  in 12 mi SSE 9.2 mph - -   Mostly Cloudy
4:00 PM 98.6 °F 37.4 °F 12% 30.09 in 6.2 mi SE 9.2 mph - N/A   Partly Cloudy
5:00 PM 100.4 °F 37.4 °F 11% 30.09 in 6.2 mi WSW 5.8 mph - N/A   Partly Cloudy
6:00 PM 98.6 °F 37.4 °F 12% 30.06 in 6.2 mi West 11.5 mph - N/A   Partly Cloudy
7:00 PM 96 °F 39 °F 7%  in 12 mi NW 17.3 mph - -   Mostly Cloudy
7:00 PM 95.0 °F 39.2 °F 14% 30.06 in 6.2 mi NNW 26.5 mph - N/A   Partly Cloudy
8:00 PM 93.2 °F 41.0 °F 16% 30.09 in 6.2 mi NNW 17.3 mph - N/A   Partly Cloudy
9:00 PM 91.4 °F 41.0 °F 17% 30.12 in 6.2 mi NNW 19.6 mph - N/A   Partly Cloudy
10:00 PM 91 °F 42 °F 10%  in 19 mi WNW 16.1 mph - -   Mostly Cloudy
10:00 PM 91.4 °F 41.0 °F 17% 30.15 in 6.2 mi NNW 15.0 mph - N/A   Partly Cloudy
11:00 PM 87.8 °F 42.8 °F 21% 30.18 in 6.2 mi North 18.4 mph - N/A   Partly Cloudy